Regional Weather Roundup
Issued by NWS

Home | Current Version | Previous Version | Text Only | Print | Product List | Glossary On
Versions: 1 2 3 4 5 6 7 8 9 10 11 12 13 14 15 16 17 18 19 20 21 22 23 24 25 26 27 28 29 30 31 32 33 34 35 36 37 38 39 40 41 42 43 44 45 46 47 48 49 50
000
ASUS43 KTOP 231959
RWRKS

WEATHER ROUNDUP FOR KANSAS
NATIONAL WEATHER SERVICE GOODLAND KS
200 PM CST MON JAN 23 2017

NOTE:  "FAIR" INDICATES FEW OR NO CLOUDS BELOW 12,000 FEET WITH NO
SIGNIFICANT WEATHER AND/OR OBSTRUCTIONS TO VISIBILITY.

KSZ001>006-013>018-027>032-041>047-232100-
NORTHWEST KANSAS

CITY           SKY/WX    TMP DP  RH WIND       PRES   REMARKS
GOODLAND       SUNNY     54  28  36 SW6       29.57F
HAYS           SUNNY     54  31  41 S21G30    29.65F
HILL CITY      SUNNY     54  31  41 S17G28    29.63F
RUSSELL        SUNNY     53  30  41 S21G32    29.66F
$$

KSZ061>065-074>080-084>089-232100-
SOUTHWEST KANSAS

CITY           SKY/WX    TMP DP  RH WIND       PRES   REMARKS
DODGE CITY     SUNNY     56  31  38 S18       29.65F
ELKHART          N/A     65  26  23 W21         N/A
GARDEN CITY    SUNNY     54  33  45 S10       29.63F
GREAT BEND     SUNNY     53  32  44 S24       29.68F
LIBERAL          N/A     63  37  39 W10G17    29.65F
$$

KSZ066>073-081>083-090>101-232100-
SOUTHEAST KANSAS

CITY           SKY/WX    TMP DP  RH WIND       PRES   REMARKS
CHANUTE        SUNNY     51  34  52 S6        29.84F
COFFEYVILLE    SUNNY     52  35  52 VRB6      29.84F
HUTCHINSON     SUNNY     52  31  44 S18       29.74F
MEDICINE LODGE   N/A     53  31  42 S20G30    29.71F
NEWTON         SUNNY     50  36  58 S13       29.75F
PARSONS        SUNNY     52  35  52 VRB3      29.85F
WICHITA INTL   SUNNY     53  34  48 S16       29.76F
WICHITA JABRA  SUNNY     52  34  50 S14       29.76F
WINFIELD       SUNNY     55  33  43 SE15      29.79F
$$

KSZ007>012-019>026-033>040-048>060-102>105-232100-
NORTHEAST KANSAS

CITY           SKY/WX    TMP DP  RH WIND       PRES   REMARKS
CONCORDIA      SUNNY     52  33  48 S14       29.73F
EMPORIA        SUNNY     54  31  41 S9        29.78F
LAWRENCE       CLOUDY    38  35  89 VRB5      29.86F FOG
MANHATTAN      SUNNY     54  33  45 S8        29.77F
OLATHE IND     CLOUDY    36  33  89 E5        29.85F FOG
OLATHE EXE     MOSUNNY   40  33  76 VRB3      29.85F
SALINA         SUNNY     52  34  50 S17       29.78F
TOPEKA BILLARD CLOUDY    37  33  85 E8        29.84F FOG
TOPEKA FORBES  SUNNY     45  36  70 E8        29.82F
$$




USA.gov is the U.S. government's official web portal to all federal, state and local government web resources and services.